カタログに戻る

THORAD AGENA D DEB

運用中PO
NORAD 4867·DEBRIS·🇺🇸 United States

打ち上げ Apr 8, 1970 から Vandenberg Space Force Base

Loading…

次のパス (今後24時間)

TLE

最新Source: Space-Track

元期: Sep 14, 2026, 07:02 UTC

1 04867U 70025EX  26257.29321003  .00000587  00000-0  39195-3 0  9991
2 04867  99.6380 206.0163 0123360 232.7714 126.2143 14.01833427867228

AllMySatでTHORAD AGENA D DEBをリアルタイム追跡

Download on the App Store